RESURS-P 1

Last updated on Mon Jul 01 2024 00:02:24 GMT+0000 (Coordinated Universal Time)

1 39186U 13030A 24178.61580920 .00071793 00000+0 57317-3 0 9999 2 39186 97.0081 228.7319 0009224 149.9433 210.2362 15.70860139616937

Satellite not in orbit

RESURS-P 1